Location: Sternwarte ZA, Rosenfeld-Brittheim
(48.2889°N, 8.6789°E)
Time: 19:56:56

ISS - Pass Details

Date: 15 March 2018
Orbit: 403 x 406 km, 51.6° (Epoch: 23 March)

Event Time Altitude Azimuth Distance (km) Brightness Sun altitude
Exits shadow 06:02:12 - 286° (WNW) 1,620 -1.4 -6.9°
Reaches altitude 10° 06:02:35 10° 284° (WNW) 1,467 -1.6 -6.9°
Maximum altitude 06:05:43 42° 212° (SSW) 592 -3.3 -6.4°
Drops below altitude 10° 06:08:50 10° 140° (SE) 1,458 -0.5 -5.8°
Sets 06:10:57 0° 133° (SE) 2,314 0.7 -5.5°
